(471) Papagena
ephemeris date magn radius delta ra dec elong phase
Today19 Apr 202511.62.430 AU3.192 AU00h03m-11°48'34.4°13.5°
Opposition10 Nov 20259.12.231 AU1.262 AU03h20m+01°56'164.1°7.0°
(471) Papagena - 2025-04-19
astro.vanbuitenen.nl


 
-1 year
-1 month
-1 day
Now
+1 day
+1 month
+1 year

The interactive orbit chart above shows the body's path through the solar system and its position at the given date. Green and blue lines are shown perpendicular to the ecliptic plane: Green if the path is above the ecliptic plane, blue if it is below. (Left-click and drag to rotate the view; Right-click and drag to move the view; Use scroll wheel to zoom in our out.)

The orbital elements of Papagena are:

            e (Eccentricity)                : 0.2290234
            a (Semimajor axis)              : 2.8885290
            i (Inclination)                 : 15.01908
            Ω (Longitude of ascending node) : 83.77139
            ω (Argument of perihelion)      : 315.87748
            M (Mean anomaly)                : 326.52079
            Epoch                           : 2025 May 05

            L (Longitude of perihelion)     : 40.64340
            B (Latitude of perihelion)      : -10.39379
            P (Orbital period in years)     : 4.91            
        

The light curve chart below shows the estimated development of the minor planet's magnitude.


The all-sky chart below shows the path of the minor planet over the same period as the light curve. The current position is marked yellow.





The following chart shows the path of the minor planet in the next few days. The field of view is optimized for (~10x50) binoculars and finderscopes. A more printer-friendly version of the same chart can be found below.




Ephemerides:
Date       Time       RA (2000)    DEC (2000)    delta   radius  elong  phase   PA    magn
2025-04-19 00:00 UT   00 03 40.5   -11 48 11     3.192    2.430   34.4   13.5   229   11.6 
2025-04-19 20:09 UT   00 05 12.2   -11 39 53     3.185    2.429   34.8   13.7   230   11.6 
2025-04-20 00:00 UT   00 05 29.7   -11 38 18     3.184    2.428   34.9   13.7   230   11.6 
2025-04-21 00:00 UT   00 07 18.8   -11 28 26     3.175    2.426   35.4   13.9   230   11.6 
2025-04-22 00:00 UT   00 09 07.9   -11 18 35     3.167    2.424   35.8   14.0   230   11.6 
2025-04-23 00:00 UT   00 10 56.8   -11 08 45     3.158    2.422   36.3   14.2   230   11.6 
2025-04-24 00:00 UT   00 12 45.7   -10 58 57     3.150    2.420   36.8   14.4   231   11.6 
2025-04-25 00:00 UT   00 14 34.5   -10 49 09     3.141    2.418   37.2   14.6   231   11.6 
2025-04-26 00:00 UT   00 16 23.2   -10 39 23     3.133    2.417   37.7   14.8   231   11.6 
2025-04-27 00:00 UT   00 18 11.8   -10 29 38     3.124    2.415   38.2   14.9   231   11.5 
2025-04-28 00:00 UT   00 20 00.3   -10 19 54     3.115    2.413   38.7   15.1   231   11.5 
2025-04-29 00:00 UT   00 21 48.7   -10 10 12     3.107    2.411   39.1   15.3   232   11.5 
2025-04-30 00:00 UT   00 23 37.1   -10 00 31     3.098    2.409   39.6   15.5   232   11.5 
2025-05-01 00:00 UT   00 25 25.3   -09 50 52     3.089    2.407   40.1   15.6   232   11.5 
2025-05-02 00:00 UT   00 27 13.4   -09 41 15     3.080    2.405   40.6   15.8   232   11.5 
2025-05-03 00:00 UT   00 29 01.4   -09 31 39     3.071    2.403   41.0   16.0   233   11.5 
2025-05-04 00:00 UT   00 30 49.3   -09 22 05     3.061    2.401   41.5   16.2   233   11.5 
2025-05-05 00:00 UT   00 32 37.1   -09 12 33     3.052    2.399   42.0   16.3   233   11.5 
2025-05-06 00:00 UT   00 34 24.8   -09 03 03     3.043    2.397   42.5   16.5   233   11.5 


    Terminology:
            
    delta:  distance between minor planet and earth in AU
    radius: distance between minor planet and sun in AU
    magn:   magnitude (brightness) estimate    
    ra:     right ascension in hours (24h = 360deg)
    dec:    declination in degrees
    elong:  elongation in degrees (angle sun-earth-minor planet)    
    phase:  phase angle in degrees (angle sun-minor planet-earth)        
    AU:     Astronomical Unit (mean distance between earth and sun: 149597870.7 km
    

Orbital elements provided by the MPC (Minor Planet Center).
Calculations by a modified version of AAPlus, a C# implementation of the AA+ project by PJ Naughter from the algorithms presented in the book "Astronomical Algorithms" by Jean Meeus.
NGC2000 dso catalog and star labels from VizieR as provided by the Strasbourg astronomical Data Center.
Tycho2 catalog from the ESO archive.